DW5444 Weather Reports


time (UTC)temp
F
wind
direction
speed
knots
gust
knots
rain 1hr
in
rain 24hr
in
rain mn
in
humidity
%
barometer
mb
20260906140051 48 169 0.9 1.7 0.08 0.08 0.08 89 1015.1
20260906134548 48 211 0.0 2.6 0.05 0.05 0.05 88 1014.8
20260906133050 48 195 0.0 0.9 0.02 0.02 0.02 87 1014.5
20260906131538 49 215 0.0 1.7 0.01 0.01 0.01 83 1014.3
20260906130040 49 246 0.0 0.9 0.00 0.00 0.00 80 1014.0
20260906124535 49 95 0.0 0.9 0.00 0.00 0.00 79 1014.1
20260906123039 50 78 0.0 3.5 0.00 0.00 0.00 77 1014.0
20260906121541 50 45 0.0 3.5 0.00 0.00 0.00 79 1013.9
20260906120029 50 289 0.0 1.7 0.00 0.00 0.00 81 1013.7
20260906114531 50 282 0.0 0.0 0.00 0.00 0.00 80 1013.7
20260906113025 51 277 0.0 0.0 0.00 0.00 0.00 79 1013.8
20260906111524 51 284 0.0 0.0 0.00 0.00 0.00 79 1013.9
20260906110024 52 238 0.0 1.7 0.00 0.00 0.00 77 1013.8
20260906104521 52 241 0.0 0.0 0.00 0.00 0.00 76 1013.7
20260906103021 52 341 0.0 0.0 0.00 0.00 0.00 75 1014.0
20260906101521 52 90 0.0 0.0 0.00 0.00 0.00 76 1013.8
20260906100023 51 111 0.0 0.9 0.00 0.00 0.00 76 1013.7
20260906094519 51 94 0.0 0.0 0.00 0.00 0.00 76 1013.6
20260906093033 52 100 0.0 0.9 0.00 0.00 0.00 77 1013.6
20260906091521 52 86 0.0 0.0 0.00 0.00 0.00 77 1013.8
20260906090016 52 135 0.0 0.0 0.00 0.00 0.00 77 1014.0
20260906084511 53 107 0.0 0.0 0.00 0.00 0.00 74 1014.1
20260906083010 54 125 0.0 1.7 0.00 0.00 0.00 73 1014.3
20260906081512 55 331 0.0 4.3 0.00 0.00 0.00 70 1014.4
20260906080008 54 85 0.0 2.6 0.00 0.00 0.00 71 1014.4
20260906074506 53 86 0.0 0.9 0.00 0.00 0.00 74 1014.4
20260906073003 53 94 0.9 2.6 0.00 0.00 0.00 73 1014.7
20260906071501 54 217 0.0 0.9 0.00 0.00 0.00 72 1014.7
20260906070122 54 61 0.0 0.9 0.00 0.00 0.00 72 1014.7
20260906064556 54 90 1.7 2.6 0.00 0.00 0.00 73 1014.8
20260906063055 53 104 0.0 0.0 0.00 0.00 0.00 75 1015.1
20260906061618 54 90 0.0 0.0 0.00 0.00 0.00 73 1015.2
20260906060054 54 80 0.0 1.7 0.00 0.00 0.00 71 1015.3
20260906054656 54 92 0.0 2.6 0.00 0.00 0.00 72 1015.3
20260906053056 53 93 0.0 1.7 0.00 0.00 0.00 73 1015.3
20260906051553 53 117 0.0 4.3 0.00 0.00 0.00 71 1015.3
20260906050108 53 85 0.0 0.9 0.00 0.00 0.00 72 1015.4
20260906044552 55 102 0.9 2.6 0.00 0.00 0.00 68 1015.6
20260906043105 54 90 0.0 1.7 0.00 0.00 0.00 69 1015.6
20260906041551 53 109 0.0 0.9 0.00 0.00 0.00 70 1015.4
20260906040110 54 102 0.0 0.9 0.00 0.00 0.00 67 1015.3
20260906034550 55 79 0.0 2.6 0.00 0.00 0.00 65 1015.4
20260906033149 56 97 1.7 2.6 0.00 0.00 0.00 63 1015.5
20260906031549 56 107 0.0 0.0 0.00 0.00 0.00 63 1015.2
20260906030048 56 131 0.0 2.6 0.00 0.00 0.00 63 1015.2
20260906024547 57 87 0.0 0.9 0.00 0.00 0.00 62 1015.1
20260906023102 58 122 0.0 1.7 0.00 0.00 0.00 61 1015.2
20260906021547 59 325 0.0 0.0 0.00 0.00 0.00 59 1015.1
20260906020046 60 29 0.0 4.3 0.00 0.00 0.00 58 1015.0
20260906014556 60 66 0.0 4.3 0.00 0.00 0.00 55 1015.2
20260906013045 61 53 0.9 5.2 0.00 0.00 0.00 54 1015.1
20260906011553 61 329 0.9 7.0 0.00 0.00 0.00 55 1015.1
20260906010044 62 348 2.6 7.0 0.00 0.00 0.00 55 1015.0
20260906004543 63 331 2.6 7.8 0.00 0.00 0.00 53 1015.0
20260906003044 64 66 4.3 9.6 0.00 0.00 0.00 52 1015.0
20260906001542 64 95 3.5 8.7 0.00 0.00 0.00 52 1015.1
20260906000043 64 346 6.1 9.6 0.00 0.00 0.00 52 1015.1
20260905234551 64 343 5.2 11.3 0.00 0.00 0.00 53 1015.1
20260905233040 64 67 5.2 10.4 0.00 0.00 0.00 53 1015.1
20260905231540 63 314 3.5 9.6 0.00 0.00 0.00 53 1015.2
20260905230042 63 320 5.2 11.3 0.00 0.00 0.00 52 1015.2
20260905224539 63 331 2.6 8.7 0.00 0.00 0.00 53 1015.3
20260905223038 63 19 3.5 9.6 0.00 0.00 0.00 53 1015.4
20260905221536 63 14 3.5 9.6 0.00 0.00 0.00 53 1015.5
20260905220034 63 328 3.5 12.2 0.00 0.00 0.00 54 1015.5
20260905214531 62 355 3.5 10.4 0.00 0.00 0.00 55 1015.6
20260905213031 62 19 1.7 9.6 0.00 0.00 0.00 55 1015.7
20260905211529 61 61 3.5 11.3 0.00 0.00 0.00 56 1015.6
20260905210030 61 339 2.6 11.3 0.00 0.00 0.00 57 1015.6
20260905204528 59 38 3.5 9.6 0.00 0.00 0.00 57 1015.8
20260905203028 60 305 3.5 10.4 0.00 0.00 0.00 59 1016.0
20260905201527 58 322 4.3 8.7 0.00 0.00 0.00 59 1016.0
20260905200039 59 320 5.2 8.7 0.00 0.00 0.00 57 1016.1
20260905194526 61 319 3.5 8.7 0.00 0.00 0.00 54 1016.1
20260905193025 61 78 2.6 9.6 0.00 0.00 0.00 55 1016.2
20260905191529 61 50 1.7 7.8 0.00 0.00 0.00 55 1016.2
20260905190041 61 327 3.5 7.0 0.00 0.00 0.00 54 1016.2
20260905184522 60 316 2.6 7.8 0.00 0.00 0.00 55 1016.2
20260905183021 60 81 2.6 5.2 0.00 0.00 0.00 55 1016.3
20260905181525 59 322 2.6 7.0 0.00 0.00 0.00 57 1016.4
20260905180022 60 341 0.0 4.3 0.00 0.00 0.00 55 1016.5
20260905174538 63 75 0.0 1.7 0.00 0.00 0.00 49 1016.5
20260905173036 58 40 1.7 4.3 0.00 0.00 0.00 63 1016.6
20260905171537 57 287 0.9 4.3 0.00 0.00 0.00 64 1016.7
20260905170035 57 31 0.0 2.6 0.00 0.00 0.00 65 1016.7
20260905164535 55 47 0.9 4.3 0.00 0.00 0.00 69 1016.8
20260905163028 54 45 1.7 5.2 0.00 0.00 0.00 69 1016.7
20260905161527 54 284 0.9 5.2 0.00 0.00 0.00 68 1016.5
20260905160026 55 313 0.9 2.6 0.00 0.00 0.00 70 1016.5
20260905154524 54 317 1.7 4.3 0.00 0.00 0.00 71 1016.7
20260905153027 54 321 0.0 1.7 0.00 0.00 0.00 71 1016.4
20260905151519 53 63 0.9 1.7 0.00 0.00 0.00 73 1016.3
20260905150019 52 71 0.0 0.9 0.00 0.00 0.00 78 1016.4
20260905144511 51 70 0.0 0.0 0.00 0.00 0.00 82 1016.3
20260905143018 50 70 0.0 0.9 0.00 0.00 0.00 83 1016.2